[TLELIST] Archives

 

[TLELIST] Current TLEs

March 10th 2023 PDT

HST 1 20580U 90037B 23068.70494491 .00009697 00000-0 53557-3 0 9990 2 20580 28.4690 209.4994 0002862 34.9440 346.5415 15.12262223606641 ISS (ZARYA) 1 25544U 98067A 23069.49665953 .00016359 00000-0 30307-3 0 9997 2 25544 51.6414 97.4159 0005599 69.6476 78.6048 15.49123493386487 CXO 1 25867U 99040B 23067.48244204 .00001102 00000-0 00000-0 0 9990 2 25867 38.8771 209.3042 9022657 252.4083 0.4903 0.37818766 12790 ...Continue Reading

[TLELIST] Current TLEs

March 10th 2023 PDT

HST 1 20580U 90037B 23068.70494491 .00009697 00000-0 53557-3 0 9990 2 20580 28.4690 209.4994 0002862 34.9440 346.5415 15.12262223606641 ISS (ZARYA) 1 25544U 98067A 23069.49665953 .00016359 00000-0 30307-3 0 9997 2 25544 51.6414 97.4159 0005599 69.6476 78.6048 15.49123493386487 CXO 1 25867U 99040B 23067.48244204 .00001102 00000-0 00000-0 0 9990 2 25867 38.8771 209.3042 9022657 252.4083 0.4903 0.37818766 12790 ...Continue Reading

[TLELIST] Current TLEs

March 10th 2023 PDT

HST 1 20580U 90037B 23068.70494491 .00009697 00000-0 53557-3 0 9990 2 20580 28.4690 209.4994 0002862 34.9440 346.5415 15.12262223606641 ISS (ZARYA) 1 25544U 98067A 23069.49665953 .00016359 00000-0 30307-3 0 9997 2 25544 51.6414 97.4159 0005599 69.6476 78.6048 15.49123493386487 CXO 1 25867U 99040B 23067.48244204 .00001102 00000-0 00000-0 0 9990 2 25867 38.8771 209.3042 9022657 252.4083 0.4903 0.37818766 12790 ...Continue Reading

[TLELIST] Current TLEs

March 9th 2023 PDT

HST 1 20580U 90037B 23068.13794338 .00012562 00000-0 69669-3 0 9996 2 20580 28.4689 213.2662 0002825 28.8231 139.7024 15.12256399606569 ISS (ZARYA) 1 25544U 98067A 23068.53091169 .00057768 00000-0 10448-2 0 9995 2 25544 51.6385 102.1977 0005740 65.2163 93.7092 15.49102498386332 CXO 1 25867U 99040B 23067.48244204 .00001102 00000-0 00000-0 0 9990 2 25867 38.8771 209.3042 9022657 252.4083 0.4903 0.37818766 12790 ...Continue Reading

[TLELIST] Current TLEs

March 9th 2023 PDT

HST 1 20580U 90037B 23068.13794338 .00012562 00000-0 69669-3 0 9996 2 20580 28.4689 213.2662 0002825 28.8231 139.7024 15.12256399606569 ISS (ZARYA) 1 25544U 98067A 23068.53091169 .00057768 00000-0 10448-2 0 9995 2 25544 51.6385 102.1977 0005740 65.2163 93.7092 15.49102498386332 CXO 1 25867U 99040B 23067.48244204 .00001102 00000-0 00000-0 0 9990 2 25867 38.8771 209.3042 9022657 252.4083 0.4903 0.37818766 12790 ...Continue Reading

[TLELIST] Current TLEs

March 8th 2023 PDT

HST 1 20580U 90037B 23066.72501111 .00009569 00000-0 52885-3 0 9999 2 20580 28.4685 222.6531 0002732 14.3402 6.8126 15.12228220606087 ISS (ZARYA) 1 25544U 98067A 23067.36115392 .00018677 00000-0 34141-3 0 9993 2 25544 51.6405 107.9846 0006609 52.1744 58.5396 15.49396926386155 CXO 1 25867U 99040B 23067.48244204 .00001102 00000-0 00000-0 0 9990 2 25867 38.8771 209.3042 9022657 252.4083 0.4903 0.37818766 12790 ...Continue Reading

[TLELIST] Current TLEs

March 8th 2023 PDT

HST 1 20580U 90037B 23066.72501111 .00009569 00000-0 52885-3 0 9999 2 20580 28.4685 222.6531 0002732 14.3402 6.8126 15.12228220606087 ISS (ZARYA) 1 25544U 98067A 23067.36115392 .00018677 00000-0 34141-3 0 9993 2 25544 51.6405 107.9846 0006609 52.1744 58.5396 15.49396926386155 CXO 1 25867U 99040B 23067.48244204 .00001102 00000-0 00000-0 0 9990 2 25867 38.8771 209.3042 9022657 252.4083 0.4903 0.37818766 12790 ...Continue Reading

[TLELIST] Current TLEs

March 8th 2023 PDT

HST 1 20580U 90037B 23066.72501111 .00009569 00000-0 52885-3 0 9999 2 20580 28.4685 222.6531 0002732 14.3402 6.8126 15.12228220606087 ISS (ZARYA) 1 25544U 98067A 23067.36115392 .00018677 00000-0 34141-3 0 9993 2 25544 51.6405 107.9846 0006609 52.1744 58.5396 15.49396926386155 CXO 1 25867U 99040B 23067.48244204 .00001102 00000-0 00000-0 0 9990 2 25867 38.8771 209.3042 9022657 252.4083 0.4903 0.37818766 12790 ...Continue Reading

[TLELIST] Current TLEs

March 7th 2023 PDT

HST 1 20580U 90037B 23065.88630472 .00008407 00000-0 46367-3 0 9996 2 20580 28.4683 228.2253 0002659 5.4328 120.7360 15.12212224605952 ISS (ZARYA) 1 25544U 98067A 23066.19942997 -.00133287 00000-0 -24244-2 0 9991 2 25544 51.6388 113.7342 0006616 51.1967 55.4308 15.49299426385970 CXO 1 25867U 99040B 23067.48244204 .00001102 00000-0 00000-0 0 9990 2 25867 38.8771 209.3042 9022657 252.4083 0.4903 0.37818766 12790 ...Continue Reading

[TLELIST] Current TLEs

March 7th 2023 PDT

HST 1 20580U 90037B 23065.88630472 .00008407 00000-0 46367-3 0 9996 2 20580 28.4683 228.2253 0002659 5.4328 120.7360 15.12212224605952 ISS (ZARYA) 1 25544U 98067A 23066.19942997 -.00133287 00000-0 -24244-2 0 9991 2 25544 51.6388 113.7342 0006616 51.1967 55.4308 15.49299426385970 CXO 1 25867U 99040B 23067.48244204 .00001102 00000-0 00000-0 0 9990 2 25867 38.8771 209.3042 9022657 252.4083 0.4903 0.37818766 12790 ...Continue Reading
  • This mailing list is a public mailing list - anyone may join or leave, at any time.
  • This mailing list is announce-only.

International Space Station (ISS) / Hubble Space Telescope (HST) / Chandra X-Ray Observatory Orbital Data via EMAIL

Privacy Policy:

Private list